GOMX-1

Last updated on Mon Jun 22 2026 00:03:18 GMT+0000 (Coordinated Universal Time)

1 39430U 13066Q 26172.54391017 .00001498 00000+0 22955-3 0 9990 2 39430 97.6481 12.7311 0130030 63.7574 297.6930 14.69473415670553
UTC large
Height (km)
Speed (km/s)
/
Latitude / Longitude
Inclination (degrees)
Orbital Period (minutes)
Azimuth
Elevation
Range (km)
Doppler Factor

Next 0 passes for location: London (51.5072 / 0.1276)

No passes found over London.
GOMX-1